Location: Brompton
(51.4000°N, 0.5333°E)
Time: 17:47:51
(UTC+00:00)

Cosmos 1536 - Pass Details

Date: 29 September 2021
Orbit: 539 x 557 km, 82.5° (Epoch: 28 October)

Event Time Altitude Azimuth Distance (km) Brightness Sun altitude
Rises 03:39:21 0° 348° (NNW) 2,713 6.5 -21.5°
Reaches altitude 10° 03:41:31 10° 348° (NNW) 1,815 5.6 -21.2°
Maximum altitude 03:45:30 82° 263° (W) 553 2.6 -20.6°
Enters shadow 03:47:36 27° 176° (S) 1,060 4.1 -20.3°
